Temperature
8 9 9 9 9 9 8 7 7 9 10 11 12 11 10 9 8 7 6 6 5 5 4 4 4 5 7 8 8 9 8 8 8 7 7 7 6 6 5 5 4 3 3 2
8 9 9 9 9 9 9 8 8 8 9 11 11 10 9 9 7 6 5 5 4 4 3 3 4 5 7 8 8 8 8 7 7 7 7 6 6 5 4 4 3 2 2 1
8 10 9 9 10 9 9 9 9 8 10 12 11 11 10 9 7 6 5 4 3 3 3 3 5 6 7 7 7 7 7 7 7 6 6 5 5 4 3 3 2 2 1 1
8 9 8 12 11 10 9 10 10 10 11 11 11 10 9 8 7 6 5 4 3 3 3 3 4 6 7 7 7 7 7 7 6 6 5 4 4 3 2 2 1 1 0 0
7 9 10 11 11 9 9 10 11 11 11 11 10 10 9 7 7 6 5 4 4 4 4 4 5 6 7 6 6 6 6 6 6 5 4 4 3 2 2 1 1 0 -0 -0
7 8 9 11 11 10 9 10 11 10 11 11 10 12 10 7 6 6 5 5 4 4 5 5 6 6 7 6 6 6 6 5 5 4 3 2 2 1 1 0 -0 -0 -1 -1
7 8 10 12 10 10 10 11 11 10 10 9 10 9 7 6 6 5 5 5 5 5 5 6 6 6 6 6 6 6 5 4 4 3 2 2 1 0 0 -0 -1 -1 -1 -2
8 8 10 12 10 11 11 10 9 8 8 7 6 5 6 6 5 5 5 5 5 6 6 6 6 6 6 6 5 5 4 3 3 2 1 1 0 -0 -1 -1 -1 -2 -2 -2
10 11 12 10 10 10 9 8 8 7 6 6 5 4 5 5 5 5 5 5 5 6 6 5 5 6 6 5 4 4 3 2 2 1 0 -0 -0 -1 -1 -1 -2 -2 -3 -3
9 10 11 10 10 9 8 7 7 6 6 5 5 4 4 4 4 4 4 4 4 5 5 4 4 5 5 5 4 3 2 2 1 0 -0 -1 -1 -1 -2 -2 -3 -3 -4 -4
9 11 11 11 9 8 8 7 7 6 5 5 4 4 4 4 4 4 4 4 4 4 4 4 4 4 4 4 3 2 2 1 0 -0 -1 -1 -1 -2 -2 -3 -3 -4 -5 -6
11 11 11 11 8 8 7 7 6 5 4 4 4 3 3 3 3 3 3 3 3 3 4 4 3 3 3 2 2 2 1 0 -0 -1 -1 -2 -2 -2 -3 -3 -4 -5 -6 -6
10 9 9 8 8 7 7 6 5 5 4 3 3 3 4 4 3 3 3 3 3 3 4 3 3 2 2 1 1 1 0 -0 -1 -1 -2 -2 -3 -3 -3 -4 -4 -5 -6 -6
8 8 8 7 7 7 6 6 5 4 4 4 3 4 4 4 3 3 3 3 3 3 3 2 2 2 1 0 0 -0 -0 -1 -1 -2 -2 -3 -3 -4 -4 -5 -5 -5 -6 -7
8 7 8 7 7 6 6 5 5 4 4 3 4 4 4 4 4 3 3 3 3 3 2 2 1 1 0 -0 -1 -1 -1 -2 -2 -3 -3 -4 -4 -5 -5 -6 -6 -7 -7 -7
7 7 7 7 6 6 5 5 5 5 4 4 4 4 4 4 3 3 2 2 2 2 1 1 1 0 -1 -1 -1 -2 -2 -2 -3 -3 -4 -4 -5 -5 -6 -6 -7 -7 -8 -8
6 5 5 5 5 5 5 5 6 6 5 5 4 4 4 3 3 2 2 1 1 1 0 0 -0 -1 -1 -2 -2 -2 -3 -3 -4 -4 -4 -5 -5 -6 -7 -7 -8 -8 -8 -9
6 7 7 7 7 6 5 5 6 5 5 5 4 4 3 3 2 2 1 1 0 -0 -1 -1 -1 -2 -2 -2 -3 -3 -3 -4 -4 -5 -5 -6 -6 -7 -8 -8 -8 -9 -9 -9
6 7 6 6 6 6 6 6 6 5 5 4 4 3 3 2 2 1 0 0 -0 -1 -1 -2 -2 -2 -3 -3 -3 -4 -4 -4 -5 -5 -6 -6 -7 -8 -8 -9 -9 -9 -9 -10
6 6 6 5 6 6 6 6 5 5 4 4 4 3 2 1 1 0 -0 -0 -1 -1 -2 -2 -3 -3 -3 -4 -4 -4 -4 -5 -5 -6 -6 -7 -8 -8 -9 -9 -9 -10 -10 -10
5 5 5 5 5 5 6 6 5 5 4 3 3 3 2 1 0 -0 -1 -1 -2 -2 -3 -3 -3 -4 -4 -4 -4 -5 -5 -6 -6 -7 -7 -8 -8 -9 -9 -9 -10 -10 -10 -10
4 4 4 4 5 4 4 5 5 4 3 3 2 2 1 0 -0 -1 -1 -1 -2 -3 -3 -3 -4 -4 -4 -4 -5 -5 -6 -6 -7 -7 -8 -8 -9 -9 -9 -10 -10 -10 -11 -11
3 3 3 4 4 4 4 4 4 4 3 3 2 1 1 0 -1 -1 -1 -2 -3 -3 -4 -4 -4 -4 -5 -5 -5 -6 -6 -7 -7 -8 -8 -9 -9 -9 -10 -10 -10 -11 -11 -11
2 2 3 3 4 4 3 3 3 3 2 2 1 1 0 -0 -1 -2 -2 -3 -3 -4 -4 -4 -4 -5 -5 -5 -6 -6 -7 -7 -8 -8 -9 -9 -9 -10 -10 -10 -11 -11 -11 -11
1 2 2 2 3 3 3 3 2 2 1 1 -0 -1 -1 -1 -1 -2 -3 -3 -4 -4 -4 -5 -5 -5 -6 -6 -6 -7 -7 -8 -8 -9 -9 -9 -10 -10 -10 -11 -11 -11 -11 -11
0 1 1 2 3 3 3 2 2 1 1 -0 -1 -2 -2 -2 -2 -3 -3 -4 -4 -4 -5 -5 -5 -6 -6 -6 -7 -7 -8 -8 -8 -9 -9 -10 -10 -10 -10 -11 -11 -11 -11 -11
-1 -0 0 1 2 2 2 2 1 1 0 -0 -1 -2 -3 -3 -3 -3 -4 -4 -4 -5 -5 -5 -6 -6 -6 -7 -7 -8 -8 -8 -9 -9 -9 -10 -10 -10 -10 -10 -11 -11 -11 -10
Wind_Speed
16 16 16 20 21 20 22 23 21 27 30 33 29 24 20 13 6 2 2 6 9 11 13 15 16 17 18 18 18 19 20 19 18 17 16 15 14 13 11 10 8 7 5 3
13 16 18 23 24 24 23 23 24 28 30 27 21 15 13 8 3 4 5 7 10 12 14 16 17 17 18 18 18 18 19 19 18 17 16 15 13 12 11 9 7 5 3 1
8 10 13 14 13 13 12 13 15 17 18 19 18 15 10 5 3 5 8 10 12 13 14 15 16 18 19 19 18 18 19 18 17 16 15 14 12 11 10 8 6 4 2 1
5 8 7 4 1 6 11 13 14 17 18 17 14 11 6 2 4 7 9 11 12 13 14 14 15 17 18 18 18 18 18 17 16 16 15 13 12 10 8 6 4 3 1 1
4 6 11 9 3 3 6 7 7 10 12 11 8 5 3 2 4 8 10 12 13 14 15 16 17 18 19 18 18 18 17 16 15 15 14 12 11 9 7 5 3 1 1 2
5 5 5 5 4 3 4 5 5 8 10 9 6 3 4 4 7 10 12 13 14 15 16 16 17 18 19 18 17 17 16 15 14 13 13 11 10 8 5 4 2 1 1 3
9 7 8 8 6 4 2 5 9 9 9 6 3 2 2 5 9 12 14 15 15 16 15 15 17 18 18 17 16 16 15 15 13 12 11 10 8 6 5 3 1 1 3 3
7 8 8 3 2 3 5 8 9 8 6 3 1 4 6 9 11 13 14 15 15 15 14 14 16 17 17 16 16 16 15 14 12 11 9 8 7 6 4 2 0 2 4 5
8 9 5 2 5 7 7 9 7 6 4 2 4 5 8 10 12 13 14 13 13 15 15 14 13 15 18 17 16 16 15 13 11 10 8 7 6 4 3 1 1 3 4 6
7 10 11 11 10 7 5 5 4 3 1 3 6 9 10 11 12 12 13 13 14 16 16 14 13 14 16 17 16 16 14 12 10 9 7 6 4 3 1 1 2 4 5 6
9 10 10 7 4 2 1 2 3 4 4 6 10 11 12 12 12 12 12 13 13 14 16 16 15 15 15 15 15 15 13 11 9 7 6 5 3 2 1 1 3 5 6 7
7 5 4 3 2 1 2 3 4 7 9 9 10 13 13 13 13 13 13 14 14 15 16 16 15 15 13 12 14 14 11 9 6 5 4 3 2 1 1 2 4 6 7 9
6 1 1 1 2 3 4 6 7 8 10 12 11 12 14 14 13 14 15 15 15 16 16 16 15 14 12 11 11 11 10 8 6 5 3 2 1 2 3 2 3 5 7 10
5 3 2 3 3 6 8 10 11 12 12 12 12 13 14 15 15 15 15 15 16 16 16 15 15 13 10 10 11 11 9 8 6 4 3 2 1 2 3 5 6 6 8 11
4 5 2 6 9 10 10 11 13 12 13 13 12 13 14 15 16 15 15 15 16 16 15 15 14 12 9 10 11 10 7 5 4 4 2 1 1 2 3 5 6 7 8 9
3 5 8 9 10 11 11 11 12 13 12 13 13 13 14 16 16 15 14 14 16 16 14 14 13 10 9 10 10 7 6 7 4 3 2 1 1 3 4 5 6 7 8 9
6 6 7 9 11 12 10 10 11 13 13 14 15 15 16 17 17 15 13 13 14 14 12 12 11 9 8 8 8 6 5 5 4 2 2 2 2 4 4 5 6 7 8 9
4 5 9 11 13 13 12 12 13 14 14 14 16 16 16 16 16 15 14 14 15 13 11 10 10 9 8 7 6 5 4 3 2 2 2 2 3 4 5 5 7 8 8 10
3 5 8 11 12 13 14 14 14 14 15 16 16 15 15 15 15 14 14 14 14 12 8 9 12 9 8 7 6 4 4 3 2 2 2 3 4 4 5 6 7 8 8 9
4 7 10 12 13 14 15 15 16 15 15 16 17 16 15 14 14 14 13 11 7 8 10 10 9 8 7 6 5 4 3 2 2 2 2 3 4 5 5 6 7 8 8 8
7 10 12 13 14 13 14 16 17 16 15 15 16 17 16 14 13 12 12 10 7 9 10 10 7 6 5 5 5 3 2 2 2 2 3 4 5 5 6 7 7 8 8 8
7 10 12 14 15 14 13 13 15 17 16 15 16 16 16 14 12 11 9 8 9 11 8 6 5 6 6 5 3 2 2 1 2 3 3 4 5 6 6 7 8 8 8 8
7 10 12 14 15 15 14 13 14 15 15 16 16 16 14 12 10 10 9 7 8 10 7 6 7 8 7 4 2 2 1 2 3 3 4 5 5 6 7 8 7 8 8 9
9 10 12 13 15 16 16 13 12 12 13 13 12 13 13 11 8 6 9 12 13 11 7 8 9 7 5 2 1 1 2 2 3 4 5 5 5 6 6 7 7 8 8 10
10 11 13 15 14 13 15 16 16 15 14 12 12 10 7 7 8 10 10 11 13 10 7 7 7 5 3 1 1 2 2 3 4 5 5 5 6 6 6 7 7 8 8 9
9 10 9 9 10 12 13 13 12 11 12 11 9 8 9 9 11 10 9 9 9 9 6 4 3 2 1 1 2 3 3 4 5 5 5 6 6 7 7 7 9 8 9 9
9 9 9 10 10 10 11 11 13 12 11 12 11 8 9 9 9 9 8 7 6 5 3 2 1 1 1 2 3 3 4 4 5 5 5 6 6 6 7 8 8 8 9 9
Wind_Direction
258 268 267 263 262 253 244 246 255 268 275 282 290 297 300 298 288 277 150 137 138 142 143 141 139 137 135 135 137 136 132 130 130 129 128 128 130 130 130 128 127 130 133 137
266 265 265 268 266 262 258 254 254 265 274 278 288 295 297 293 246 161 146 142 139 140 141 141 140 138 136 135 136 133 130 128 129 129 129 129 131 130 129 128 129 134 137 149
277 286 287 271 265 259 252 251 252 260 267 287 301 307 306 288 188 153 150 147 145 145 143 142 141 139 137 136 134 130 128 129 130 130 130 131 131 131 131 132 135 140 145 229
284 297 263 271 306 276 279 274 262 261 273 290 303 312 315 282 163 150 148 145 143 141 138 137 135 134 132 132 131 129 128 130 131 132 131 132 132 132 132 134 139 144 162 301
259 276 282 289 285 282 297 292 298 292 296 305 309 303 4 65 135 144 143 138 136 136 135 134 135 135 132 130 130 129 131 133 135 135 134 135 134 132 132 137 141 151 257 298
247 269 271 292 318 309 274 289 343 329 319 322 321 346 31 82 122 128 128 128 129 131 133 134 137 137 133 132 133 133 134 133 134 134 134 134 131 130 132 138 141 200 276 294
238 252 270 284 305 302 286 332 330 325 323 323 324 0 53 105 116 121 123 126 129 132 134 137 140 138 133 132 132 131 129 128 127 127 126 126 125 127 133 136 160 278 297 300
211 230 253 258 269 260 302 314 312 317 322 319 75 84 99 108 115 120 123 128 132 130 129 136 140 137 131 128 128 127 125 123 122 121 120 124 126 128 131 139 265 312 314 315
215 233 264 253 251 277 294 293 303 311 316 161 134 117 112 113 116 120 124 127 128 127 127 131 135 134 128 128 129 127 123 121 120 118 118 125 129 132 132 115 329 325 321 317
253 261 269 276 279 281 285 290 315 317 279 167 142 130 121 118 117 119 121 125 128 127 126 125 125 123 125 129 129 127 124 123 123 123 124 126 123 121 107 10 335 324 319 318
249 271 286 281 276 290 39 57 57 65 89 122 129 126 123 119 118 119 119 122 125 125 123 122 120 120 124 128 128 125 123 124 124 126 129 126 117 90 18 359 324 321 321 318
240 249 252 300 22 74 104 89 96 101 97 102 116 120 117 114 115 116 117 118 118 118 118 119 119 120 123 128 129 126 125 127 127 128 124 119 112 101 219 290 316 319 322 321
254 278 244 112 86 100 108 106 104 105 109 109 109 113 114 112 112 113 114 116 117 118 118 118 117 116 120 123 124 123 126 127 125 124 121 111 65 357 336 305 280 299 320 327
230 200 219 193 140 116 114 110 104 100 100 103 108 109 110 110 110 110 112 115 115 115 115 116 113 111 115 117 115 114 116 115 117 115 110 94 35 348 334 329 326 325 328 329
219 214 175 124 120 120 122 121 114 108 107 106 108 111 113 113 111 110 113 116 114 112 113 114 111 109 113 114 113 114 114 115 112 109 103 82 12 335 328 324 321 322 324 328
118 116 130 137 139 139 140 136 127 124 121 118 114 112 112 111 111 111 116 120 118 116 117 115 111 112 114 114 112 109 106 109 110 110 103 59 354 337 331 327 323 322 323 326
148 154 158 159 159 155 153 146 138 134 129 124 122 121 119 115 111 109 108 107 108 109 113 114 114 113 112 113 112 111 112 115 112 104 72 20 347 337 330 323 320 318 316 320
222 203 187 174 163 156 147 138 135 133 129 128 128 127 125 123 121 118 116 113 105 99 99 109 114 112 108 107 107 110 113 112 101 78 37 359 341 332 323 318 316 315 316 319
208 176 165 160 156 150 143 139 136 132 131 134 131 126 122 121 122 123 124 121 118 115 115 118 118 113 110 109 109 108 107 103 89 56 10 342 331 326 320 316 314 315 315 316
135 143 144 142 142 142 140 137 134 133 134 133 127 123 121 123 125 124 119 110 108 122 129 126 121 114 112 111 107 100 97 87 60 16 346 332 326 322 318 315 315 315 314 313
133 136 138 137 134 135 138 139 138 136 137 137 133 130 127 126 127 126 121 113 112 123 126 126 120 118 113 112 102 93 84 63 22 349 332 324 320 317 316 316 314 313 312 311
138 139 137 135 132 130 133 135 135 134 132 129 127 128 127 127 122 111 104 120 132 132 126 122 118 118 118 110 94 85 65 26 348 329 321 317 315 313 313 314 312 311 310 309
136 137 137 136 132 127 123 126 131 132 133 135 136 136 133 131 131 127 122 128 133 131 124 121 122 118 110 96 86 68 29 348 328 318 313 310 307 306 306 307 307 307 307 307
134 133 131 130 128 125 123 122 118 118 119 119 123 129 129 124 109 103 123 134 135 127 119 120 117 110 99 83 65 21 344 326 316 310 307 305 303 302 300 301 303 304 303 304
132 133 137 139 135 131 128 124 118 117 114 112 111 109 108 114 123 126 126 130 131 122 114 112 106 97 81 60 13 337 322 312 308 309 308 306 303 301 300 299 300 301 301 300
139 141 142 139 135 136 137 133 130 130 127 121 111 105 105 108 115 118 117 120 121 116 108 99 90 74 44 2 332 319 312 309 308 306 301 298 298 298 297 299 300 298 296 296
129 129 126 123 130 137 136 134 134 136 136 132 124 121 120 119 118 118 117 115 113 108 104 96 77 34 350 328 316 311 306 303 300 298 297 295 294 293 295 296 295 295 294 293
Height
1436 1434 1434 1431 1428 1427 1428 1424 1418 1399 1391 1377 1373 1372 1370 1367 1365 1364 1364 1366 1368 1372 1376 1380 1385 1390 1396 1403 1410 1418 1425 1433 1440 1448 1454 1460 1465 1468 1471 1473 1475 1476 1476 1476
1432 1428 1425 1421 1415 1413 1411 1409 1405 1398 1387 1374 1371 1370 1367 1364 1364 1364 1365 1368 1371 1374 1378 1381 1386 1391 1397 1405 1412 1420 1427 1435 1442 1449 1455 1460 1464 1467 1470 1472 1473 1474 1474 1473
1425 1419 1418 1410 1401 1401 1400 1396 1395 1390 1379 1371 1368 1365 1364 1363 1364 1364 1367 1369 1373 1376 1379 1384 1388 1394 1400 1407 1415 1423 1430 1438 1444 1450 1455 1460 1463 1466 1468 1470 1471 1471 1471 1470
1425 1420 1414 1397 1395 1396 1394 1389 1385 1381 1375 1371 1368 1366 1364 1363 1364 1365 1368 1371 1374 1378 1382 1386 1391 1397 1404 1412 1419 1426 1433 1440 1446 1451 1455 1459 1462 1465 1467 1468 1469 1469 1468 1467
1425 1416 1403 1393 1393 1394 1393 1385 1379 1375 1371 1369 1368 1366 1365 1365 1366 1367 1370 1373 1376 1380 1384 1389 1395 1401 1408 1415 1423 1430 1436 1442 1447 1452 1456 1459 1462 1464 1466 1467 1467 1466 1465 1463
1423 1418 1405 1391 1391 1391 1393 1383 1377 1375 1372 1370 1368 1364 1367 1368 1368 1370 1373 1376 1379 1383 1388 1394 1400 1406 1413 1419 1426 1433 1439 1444 1449 1453 1456 1459 1461 1463 1464 1465 1464 1463 1461 1459
1421 1415 1399 1390 1389 1390 1388 1383 1378 1376 1373 1372 1370 1370 1372 1370 1372 1374 1376 1379 1383 1388 1393 1398 1404 1411 1417 1423 1429 1435 1441 1445 1449 1453 1456 1459 1461 1462 1463 1462 1462 1460 1458 1455
1412 1410 1400 1387 1388 1387 1383 1380 1378 1375 1374 1372 1372 1371 1372 1373 1375 1377 1380 1383 1388 1392 1397 1403 1409 1415 1420 1426 1432 1437 1442 1446 1450 1454 1456 1458 1460 1461 1461 1460 1459 1457 1455 1452
1399 1394 1386 1386 1385 1383 1382 1379 1376 1374 1373 1372 1372 1372 1373 1375 1378 1380 1383 1387 1391 1396 1401 1407 1413 1419 1423 1428 1434 1439 1444 1447 1451 1454 1456 1458 1459 1459 1458 1457 1456 1453 1451 1447
1394 1386 1384 1383 1381 1380 1378 1376 1374 1372 1371 1371 1372 1373 1375 1377 1380 1383 1387 1390 1395 1399 1404 1410 1416 1422 1427 1432 1437 1441 1445 1448 1451 1454 1456 1457 1457 1457 1456 1454 1452 1449 1446 1443
1389 1384 1381 1378 1378 1377 1376 1374 1373 1371 1371 1371 1372 1374 1376 1379 1382 1386 1390 1394 1398 1402 1407 1412 1418 1424 1430 1435 1439 1443 1446 1449 1452 1454 1455 1455 1455 1455 1453 1451 1449 1446 1443 1439
1381 1379 1380 1378 1377 1376 1375 1374 1373 1373 1372 1373 1374 1376 1379 1382 1386 1389 1393 1397 1401 1406 1411 1416 1422 1428 1433 1438 1442 1445 1447 1450 1452 1453 1454 1454 1453 1452 1450 1448 1445 1442 1439 1436
1378 1378 1378 1377 1376 1376 1375 1375 1375 1375 1375 1375 1378 1380 1382 1385 1389 1394 1398 1402 1406 1410 1415 1421 1426 1431 1436 1441 1444 1447 1449 1450 1452 1452 1453 1452 1451 1449 1447 1445 1443 1439 1436 1432
1376 1377 1376 1376 1376 1376 1376 1376 1377 1377 1379 1380 1382 1384 1387 1390 1394 1398 1402 1407 1411 1416 1421 1426 1430 1435 1439 1443 1446 1448 1449 1450 1451 1451 1451 1450 1448 1446 1444 1441 1439 1435 1432 1428
1373 1374 1375 1374 1375 1376 1377 1378 1379 1380 1382 1385 1387 1390 1392 1395 1399 1403 1408 1412 1417 1421 1426 1430 1434 1438 1441 1444 1447 1448 1449 1450 1450 1450 1449 1447 1446 1443 1441 1438 1435 1431 1428 1424
1370 1371 1372 1373 1375 1376 1378 1380 1382 1384 1386 1389 1392 1395 1398 1401 1405 1409 1414 1419 1422 1426 1430 1434 1437 1440 1443 1446 1447 1448 1449 1449 1449 1448 1446 1445 1443 1441 1438 1435 1432 1428 1424 1420
1369 1369 1371 1372 1374 1376 1379 1382 1384 1386 1389 1393 1396 1399 1403 1406 1410 1414 1419 1424 1428 1431 1434 1438 1440 1442 1445 1446 1448 1448 1448 1448 1447 1446 1444 1442 1440 1438 1435 1432 1428 1425 1421 1417
1368 1368 1369 1370 1372 1376 1379 1383 1386 1389 1393 1396 1400 1404 1408 1411 1414 1419 1423 1427 1431 1434 1437 1440 1442 1444 1445 1446 1447 1447 1447 1446 1445 1444 1442 1440 1437 1435 1432 1429 1425 1422 1418 1414
1366 1367 1368 1370 1373 1376 1379 1384 1388 1392 1396 1400 1403 1407 1411 1415 1419 1423 1427 1430 1433 1435 1439 1441 1443 1445 1446 1446 1446 1446 1445 1444 1443 1441 1439 1437 1434 1432 1429 1426 1422 1419 1415 1411
1365 1366 1367 1370 1373 1377 1381 1385 1390 1394 1399 1403 1406 1410 1415 1419 1422 1426 1429 1432 1435 1438 1440 1442 1444 1445 1445 1445 1445 1445 1444 1442 1441 1439 1437 1434 1432 1429 1426 1423 1419 1416 1412 1408
1364 1366 1368 1370 1374 1379 1383 1387 1391 1396 1401 1405 1409 1413 1416 1421 1425 1428 1431 1433 1437 1439 1441 1442 1444 1444 1445 1445 1444 1443 1442 1440 1438 1436 1434 1432 1429 1426 1423 1420 1416 1413 1409 1405
1365 1367 1369 1371 1375 1379 1384 1389 1394 1398 1402 1407 1412 1415 1418 1422 1426 1430 1433 1435 1437 1439 1441 1442 1443 1444 1444 1443 1443 1441 1440 1438 1436 1434 1431 1429 1426 1423 1420 1417 1413 1410 1406 1403
1366 1368 1370 1373 1376 1381 1386 1391 1396 1400 1405 1409 1413 1417 1420 1423 1427 1430 1432 1436 1437 1439 1441 1442 1443 1443 1443 1442 1441 1439 1437 1436 1433 1431 1428 1426 1423 1420 1417 1414 1410 1407 1404 1400
1367 1369 1371 1374 1378 1383 1387 1392 1398 1403 1407 1411 1415 1419 1422 1424 1428 1431 1434 1436 1438 1440 1441 1442 1442 1442 1441 1440 1439 1437 1435 1433 1431 1428 1426 1423 1420 1417 1414 1411 1407 1404 1401 1397
1368 1370 1373 1376 1379 1384 1388 1393 1398 1403 1408 1412 1416 1420 1424 1427 1429 1431 1434 1436 1438 1439 1440 1441 1441 1440 1439 1438 1437 1435 1433 1431 1428 1425 1423 1420 1417 1414 1411 1408 1404 1401 1398 1395
1369 1371 1374 1377 1381 1385 1389 1394 1398 1403 1408 1412 1416 1420 1424 1427 1430 1432 1434 1436 1438 1439 1439 1440 1439 1439 1438 1436 1434 1432 1430 1428 1425 1422 1420 1417 1414 1411 1408 1405 1402 1399 1395 1392
1370 1372 1375 1379 1383 1387 1391 1395 1399 1404 1408 1412 1415 1420 1424 1427 1430 1432 1434 1436 1437 1438 1438 1438 1438 1437 1435 1434 1432 1430 1427 1425 1422 1419 1416 1413 1410 1407 1405 1402 1399 1396 1393 1390